Location: Baili�vre
(50.0696°N, 4.2409°E)
Time: 05:36:40
(UTC+00:00)

Okean 1-7 - Pass Details

Date: 08 August 2020
Orbit: 590 x 619 km, 82.5° (Epoch: 19 September)

Event Time Altitude Azimuth Distance (km) Brightness Sun altitude
Rises 21:00:19 0° 355° (N) 2,886 7.4 -14.4°
Reaches altitude 10° 21:02:42 10° 4° (N) 1,971 6.3 -14.7°
Maximum altitude 21:06:45 37° 73° (ENE) 948 3.8 -15.1°
Enters shadow 21:08:33 26° 120° (ESE) 1,213 4.0 -15.3°
